Home > Weather > Konya > Past weeks

Flag for Turkey Past Weather in Konya, Turkey — Yesterday and Last 2 Weeks

Now
88 °F

Sunny.


Feels Like: 84 °F
Forecast: 63 / 85 °F
Wind: 17 mph from North

Location: Konya Airport

Current Time: Jul 23, 2016 at 6:16:37 PM

Latest Report: Jul 23, 2016 at 5:50 PM


Visibility: 10 mi

Pressure: 29.95 "Hg (26.64 "Hg at 1041m altitude)

Humidity: 16%

Dew Point: 36 °F

Location of KonyaLocation

Past Weather in Konya — Graph

°F

Konya Temperature Yesterday

Maximum temperature yesterday: 86 °F (at 4:50 PM)
Minimum temperature yesterday: 68 °F (at 4:50 AM)
Average temperature yesterday: 77 °F

High & Low Weather Summary for the Past Weeks

 TemperatureHumidityPressure
High99 °F (Jul 17, 2:50 PM)73% (Jul 21, 4:50 AM)30.09 "Hg (Jul 21, 4:50 AM)
Low61 °F (Jul 9, 4:50 AM)8% (Jul 10, 4:50 PM)29.74 "Hg (Jul 18, 3:50 PM)
Average78 °F31%29.95 "Hg
* Reported Jul 8 4:50 PM — Jul 23 4:50 PM, Konya, Weather by CustomWeather, © 2016

Note: Actual official high and low records may vary slightly from our data, if they occured in-between our weather recording intervals... More about our weather records

Advertising

Konya Weather History for the Previous 24 Hours

Scroll right to see more
 ConditionsComfort  
Time TempWeatherWind HumidityBarometerVisibility
4:50 PM
Sat, Jul 23
88 °FSunny.17 mph15%29.95 "Hg10 mi
3:50 PM88 °FPassing clouds.15 mph16%29.95 "HgN/A
2:50 PM86 °FPassing clouds.12 mph19%29.98 "HgN/A
1:50 PM84 °FPassing clouds.9 mph20%30.01 "HgN/A
12:50 PM84 °FPassing clouds.9 mph20%30.01 "HgN/A
11:50 AM82 °FPassing clouds.10 mph21%30.04 "HgN/A
10:50 AM81 °FSunny.14 mph21%30.04 "Hg10 mi
9:50 AM79 °FPassing clouds.14 mph23%30.04 "HgN/A
8:50 AM77 °FSunny.13 mph22%30.04 "Hg10 mi
7:50 AM73 °FPassing clouds.6 mph29%30.04 "HgN/A
6:50 AM70 °FSunny.8 mph31%30.04 "Hg10 mi
5:50 AM68 °FClear.No wind33%30.04 "Hg10 mi
4:50 AM70 °FClear.3 mph31%30.04 "Hg10 mi
3:50 AM70 °FClear.14 mph31%30.04 "Hg10 mi
2:50 AM72 °FClear.14 mph27%30.04 "Hg10 mi
1:50 AM73 °FClear.20 mph22%30.04 "Hg10 mi
12:50 AM75 °FClear.15 mph21%30.04 "Hg10 mi
11:50 PM
Fri, Jul 22
77 °FClear.15 mph24%30.04 "Hg10 mi
10:50 PM77 °FClear.13 mph32%30.04 "Hg10 mi
9:50 PM79 °FClear.8 mph34%30.04 "Hg10 mi
8:50 PM79 °FSunny.9 mph32%30.01 "Hg10 mi
7:50 PM82 °FScattered clouds.10 mph30%30.01 "HgN/A
6:50 PM84 °FScattered clouds.9 mph31%30.01 "HgN/A
Weather by CustomWeather, © 2016

See weather overviewHow to use our weather pages